When you browse on this site, cookies collect data to enhance your experience and personalize the content and advertising you see.
Visit our Privacy Policy to learn more. By continuing to use the site, you agree to this use of cookies and data.

Hourly Weather Jirkov

Today, 10 August, Monday

Time Temperature Precipitation Wind Pressure Humidity
00:00 +22°C° 0.2 mm 1 mps 733 mmHg 76%
01:00 +22°C° 0.2 mm 1 mps 733 mmHg 81%
02:00 +21°C° 0 mm 1 mps 732 mmHg 83%
03:00 +19°C° 0 mm 0 mps 732 mmHg 84%
04:00 +19°C° 0 mm 0 mps 732 mmHg 85%
05:00 +20°C° 0 mm 0 mps 732 mmHg 83%
06:00 +21°C° 0 mm 0 mps 732 mmHg 81%
07:00 +22°C° 0 mm 0 mps 732 mmHg 78%
08:00 +23°C° 0.4 mm 0 mps 733 mmHg 73%
09:00 +27°C° 0.4 mm 1 mps 733 mmHg 67%
10:00 +28°C° 0.4 mm 1 mps 733 mmHg 62%
11:00 +29°C° 0.8 mm 1 mps 733 mmHg 59%
12:00 +29°C° 0.8 mm 1 mps 733 mmHg 57%
13:00 +30°C° 0.8 mm 2 mps 733 mmHg 54%
14:00 +29°C° 0.3 mm 2 mps 733 mmHg 57%
15:00 +29°C° 0.3 mm 2 mps 733 mmHg 59%
16:00 +28°C° 0.3 mm 2 mps 732 mmHg 62%
17:00 +27°C° 0.6 mm 2 mps 732 mmHg 67%
18:00 +25°C° 0.6 mm 1 mps 732 mmHg 72%
19:00 +24°C° 0.6 mm 1 mps 732 mmHg 77%
20:00 +23°C° 0.4 mm 1 mps 732 mmHg 80%
21:00 +22°C° 0.4 mm 1 mps 732 mmHg 84%
22:00 +21°C° 0.4 mm 1 mps 732 mmHg 87%
23:00 +21°C° 0.2 mm 1 mps 733 mmHg 87%

Tomorrow, 11 August, Tuesday

Time Temperature Precipitation Wind Pressure Humidity
00:00 +21°C° 0.2 mm 1 mps 733 mmHg 86%
01:00 +20°C° 0.2 mm 1 mps 733 mmHg 86%
02:00 +20°C° 0 mm 1 mps 733 mmHg 87%
03:00 +20°C° 0 mm 1 mps 733 mmHg 87%
04:00 +20°C° 0 mm 1 mps 733 mmHg 88%
05:00 +20°C° 0 mm 1 mps 733 mmHg 86%
06:00 +21°C° 0 mm 1 mps 733 mmHg 84%
07:00 +22°C° 0 mm 1 mps 733 mmHg 83%
08:00 +24°C° 0 mm 1 mps 734 mmHg 76%
09:00 +25°C° 0 mm 2 mps 734 mmHg 70%
10:00 +27°C° 0 mm 3 mps 734 mmHg 64%
11:00 +27°C° 0 mm 3 mps 734 mmHg 60%
12:00 +28°C° 0 mm 3 mps 734 mmHg 56%
13:00 +29°C° 0 mm 3 mps 734 mmHg 52%
14:00 +29°C° 0.3 mm 3 mps 734 mmHg 54%
15:00 +29°C° 0.3 mm 3 mps 734 mmHg 56%
16:00 +29°C° 0.3 mm 3 mps 734 mmHg 58%
17:00 +27°C° 0.3 mm 3 mps 733 mmHg 64%
18:00 +26°C° 0.3 mm 3 mps 733 mmHg 71%
19:00 +24°C° 0.3 mm 3 mps 733 mmHg 77%
20:00 +23°C° 0 mm 2 mps 733 mmHg 80%
21:00 +21°C° 0 mm 2 mps 733 mmHg 82%
22:00 +20°C° 0 mm 2 mps 734 mmHg 85%
23:00 +20°C° 0 mm 2 mps 734 mmHg 86%

Day after tomorrow, 12 August, Wednesday

Time Temperature Precipitation Wind Pressure Humidity
00:00 +20°C° 0 mm 1 mps 734 mmHg 87%
01:00 +20°C° 0 mm 1 mps 734 mmHg 89%
02:00 +20°C° 0 mm 1 mps 734 mmHg 89%
03:00 +19°C° 0 mm 1 mps 734 mmHg 89%
04:00 +19°C° 0 mm 1 mps 734 mmHg 89%
05:00 +20°C° 0 mm 1 mps 734 mmHg 86%
06:00 +21°C° 0 mm 1 mps 734 mmHg 83%
07:00 +22°C° 0 mm 1 mps 734 mmHg 80%
08:00 +23°C° 0 mm 2 mps 734 mmHg 73%
09:00 +25°C° 0 mm 2 mps 734 mmHg 66%
10:00 +26°C° 0 mm 3 mps 735 mmHg 59%
11:00 +27°C° 0 mm 3 mps 734 mmHg 55%
12:00 +28°C° 0 mm 3 mps 734 mmHg 51%
13:00 +29°C° 0 mm 3 mps 734 mmHg 46%
14:00 +29°C° 0 mm 3 mps 734 mmHg 47%
15:00 +29°C° 0 mm 3 mps 734 mmHg 47%
16:00 +29°C° 0 mm 3 mps 733 mmHg 47%
17:00 +27°C° 0 mm 3 mps 733 mmHg 54%
18:00 +25°C° 0 mm 2 mps 733 mmHg 61%
19:00 +24°C° 0 mm 2 mps 733 mmHg 69%
20:00 +23°C° 0 mm 2 mps 733 mmHg 72%
21:00 +20°C° 0 mm 2 mps 733 mmHg 76%
22:00 +19°C° 0 mm 2 mps 733 mmHg 80%
23:00 +19°C° 0 mm 2 mps 733 mmHg 80%

13 August, Thursday

Time Temperature Precipitation Wind Pressure Humidity
00:00 +18°C° 0 mm 2 mps 733 mmHg 81%
01:00 +19°C° 0 mm 1 mps 733 mmHg 82%
02:00 +18°C° 0 mm 1 mps 732 mmHg 84%
03:00 +18°C° 0 mm 1 mps 732 mmHg 86%
04:00 +16°C° 0 mm 1 mps 732 mmHg 89%
05:00 +18°C° 0 mm 1 mps 732 mmHg 85%
06:00 +19°C° 0 mm 1 mps 732 mmHg 81%
07:00 +20°C° 0 mm 1 mps 732 mmHg 77%
08:00 +21°C° 0 mm 2 mps 732 mmHg 70%
09:00 +24°C° 0 mm 2 mps 732 mmHg 63%
10:00 +25°C° 0 mm 3 mps 732 mmHg 56%
11:00 +26°C° 0 mm 3 mps 732 mmHg 51%
12:00 +27°C° 0 mm 3 mps 732 mmHg 47%
13:00 +29°C° 0 mm 3 mps 732 mmHg 43%
14:00 +29°C° 0 mm 3 mps 731 mmHg 43%
15:00 +29°C° 0 mm 3 mps 731 mmHg 43%
16:00 +29°C° 0 mm 3 mps 730 mmHg 43%
17:00 +27°C° 0 mm 3 mps 730 mmHg 50%
18:00 +25°C° 0 mm 2 mps 730 mmHg 57%
19:00 +24°C° 0 mm 2 mps 730 mmHg 64%
20:00 +23°C° 0 mm 2 mps 730 mmHg 68%
21:00 +21°C° 0 mm 2 mps 730 mmHg 73%
22:00 +20°C° 0 mm 2 mps 730 mmHg 77%
23:00 +19°C° 0 mm 2 mps 730 mmHg 79%

14 August, Friday

Time Temperature Precipitation Wind Pressure Humidity
00:00 +20°C° 0 mm 1 mps 730 mmHg 80%
01:00 +19°C° 0 mm 1 mps 730 mmHg 82%
02:00 +19°C° 0 mm 1 mps 730 mmHg 83%
03:00 +18°C° 0 mm 1 mps 730 mmHg 84%
04:00 +18°C° 0 mm 1 mps 729 mmHg 85%
05:00 +19°C° 0 mm 1 mps 730 mmHg 80%
06:00 +20°C° 0 mm 1 mps 730 mmHg 76%
07:00 +20°C° 0 mm 2 mps 730 mmHg 72%
08:00 +23°C° 0 mm 2 mps 730 mmHg 67%
09:00 +24°C° 0 mm 2 mps 730 mmHg 62%
10:00 +26°C° 0 mm 2 mps 730 mmHg 58%
11:00 +27°C° 0 mm 2 mps 730 mmHg 55%
12:00 +28°C° 0 mm 2 mps 730 mmHg 52%
13:00 +29°C° 0 mm 2 mps 730 mmHg 49%
14:00 +30°C° 0.1 mm 2 mps 730 mmHg 48%
15:00 +30°C° 0.1 mm 2 mps 730 mmHg 47%
16:00 +30°C° 0.1 mm 1 mps 730 mmHg 46%
17:00 +28°C° 0.1 mm 1 mps 730 mmHg 52%
18:00 +27°C° 0.1 mm 1 mps 730 mmHg 59%
19:00 +25°C° 0.1 mm 1 mps 730 mmHg 65%
20:00 +24°C° 0 mm 1 mps 730 mmHg 69%
21:00 +23°C° 0 mm 1 mps 730 mmHg 74%
22:00 +22°C° 0 mm 1 mps 730 mmHg 79%
23:00 +21°C° 0.1 mm 1 mps 730 mmHg 82%

15 August, Saturday

Time Temperature Precipitation Wind Pressure Humidity
00:00 +19°C° 0.1 mm 0 mps 730 mmHg 86%
01:00 +19°C° 0.1 mm 0 mps 730 mmHg 89%
02:00 +18°C° 0.1 mm 0 mps 730 mmHg 90%
03:00 +18°C° 0.1 mm 0 mps 730 mmHg 91%
04:00 +18°C° 0.1 mm 0 mps 730 mmHg 92%
05:00 +19°C° 0 mm 0 mps 730 mmHg 88%
06:00 +20°C° 0 mm 0 mps 731 mmHg 85%
07:00 +21°C° 0 mm 0 mps 731 mmHg 82%
08:00 +22°C° 0 mm 0 mps 731 mmHg 75%
09:00 +26°C° 0 mm 1 mps 731 mmHg 68%
10:00 +27°C° 0 mm 1 mps 732 mmHg 61%
11:00 +28°C° 0.2 mm 2 mps 732 mmHg 58%
12:00 +28°C° 0.2 mm 2 mps 731 mmHg 54%
13:00 +29°C° 0.2 mm 2 mps 731 mmHg 51%
14:00 +29°C° 0.2 mm 3 mps 731 mmHg 50%
15:00 +29°C° 0.2 mm 3 mps 731 mmHg 49%
16:00 +29°C° 0.2 mm 3 mps 731 mmHg 48%
17:00 +27°C° 0 mm 2 mps 731 mmHg 54%
18:00 +26°C° 0 mm 2 mps 731 mmHg 59%
19:00 +24°C° 0 mm 1 mps 731 mmHg 65%
20:00 +23°C° 0 mm 1 mps 731 mmHg 68%
21:00 +22°C° 0 mm 1 mps 731 mmHg 71%
22:00 +21°C° 0 mm 1 mps 731 mmHg 74%
23:00 +21°C° 0 mm 1 mps 731 mmHg 78%
Show more